Jackson, WY

6:05 PM MDT on October 22, 2017 (GMT -0600)
Jackson Hole

Weather History for KJAC - July, 2014

Change the Weather History Date:

Monday, July 21, 2014

  Actual Average Record
Temperature  
Mean Temperature 66 °F -  
Max Temperature 78 °F 80 °F 91 °F (2007)
Min Temperature 53 °F 42 °F 32 °F (1986)
Growing Degree Days 16 (Base 50)    
Moisture  
Dew Point 47 °F    
Average Humidity 55    
Maximum Humidity 82    
Minimum Humidity 28    
Precipitation  
Precipitation 0.00 in - - ()
Sea Level Pressure  
Sea Level Pressure 30.20 in    
Wind  
Wind Speed 8 mph (SW)    
Max Wind Speed 30 mph    
Max Gust Speed 40 mph    
Visibility 10 miles    
Events Rain , Thunderstorm    
Averages and records for this station are not official NWS values.
T = Trace of Precipitation, MM = Missing Value Source: NWS Daily Summary

Daily Weather History Graph

Daily Weather History Graph

Search for Another Location

Airport or City:

Trip Planner

Search our weather history database for the weather conditions in past years. The results will help you decide how hot, cold, wet, or windy it might be!

Date:

Astronomy

Jul. 21, 2014 Rise Set
Actual Time 6:00 AM MDT 8:57 PM MDT
Civil Twilight 5:27 AM MDT 9:31 PM MDT
Nautical Twilight 4:43 AM MDT 10:14 PM MDT
Astronomical Twilight 3:52 AM MDT 11:04 PM MDT
Moon 1:56 AM MDT (7/21) 4:41 PM MDT (7/21)
Length of Visible Light 16h 04m
Length of Day
14h 56m
Waning Crescent, 24% of the Moon is Illuminated
Jul 21
Waning Crescent
Jul 26
New
Aug 3
First Quarter
Aug 10
Full
Aug 17
Last Quarter

Hourly Weather History & Observations

Time (MDT) Temp. Dew Point Humidity Pressure Visibility Wind Dir Wind Speed Gust Speed Precip Events Conditions
12:15 AM 62.6 °F 46.4 °F 55% 30.13 in 7.0 mi SSW 5.8 mph - N/A   Partly Cloudy
12:35 AM 66.2 °F 44.6 °F 46% 30.13 in 10.0 mi SSW 8.1 mph - N/A   Mostly Cloudy
12:55 AM 64.4 °F 46.4 °F 52% 30.13 in 10.0 mi SSW 6.9 mph - N/A   Scattered Clouds
1:15 AM 62.6 °F 46.4 °F 55% 30.12 in 10.0 mi WSW 6.9 mph - N/A   Scattered Clouds
1:35 AM 62.6 °F 46.4 °F 55% 30.13 in 10.0 mi SW 6.9 mph - N/A   Mostly Cloudy
1:55 AM 64.4 °F 46.4 °F 52% 30.13 in 10.0 mi WSW 6.9 mph - N/A   Overcast
2:15 AM 64.4 °F 46.4 °F 52% 30.13 in 10.0 mi SW 9.2 mph - N/A   Overcast
2:35 AM 62.6 °F 48.2 °F 59% 30.13 in 10.0 mi WSW 5.8 mph - N/A   Overcast
2:55 AM 62.6 °F 46.4 °F 55% 30.13 in 10.0 mi Calm Calm - N/A   Overcast
3:15 AM 62.6 °F 48.2 °F 59% 30.14 in 10.0 mi SSW 8.1 mph - N/A   Mostly Cloudy
3:35 AM 62.6 °F 48.2 °F 59% 30.15 in 10.0 mi SSW 8.1 mph - N/A   Overcast
3:55 AM 60.8 °F 48.2 °F 63% 30.15 in 10.0 mi South 8.1 mph - N/A   Overcast
4:15 AM 64.4 °F 46.4 °F 52% 30.14 in 10.0 mi South 10.4 mph - N/A   Overcast
4:35 AM 62.6 °F 46.4 °F 55% 30.15 in 10.0 mi SW 6.9 mph - N/A   Overcast
4:55 AM 60.8 °F 48.2 °F 63% 30.15 in 10.0 mi WSW 5.8 mph - N/A   Overcast
5:15 AM 62.6 °F 48.2 °F 59% 30.15 in 10.0 mi WSW 6.9 mph - N/A   Mostly Cloudy
5:35 AM 60.8 °F 48.2 °F 63% 30.16 in 10.0 mi WSW 9.2 mph - N/A   Mostly Cloudy
5:55 AM 60.8 °F 48.2 °F 63% 30.16 in 10.0 mi SW 10.4 mph - N/A   Mostly Cloudy
6:15 AM 60.8 °F 48.2 °F 63% 30.17 in 10.0 mi SW 9.2 mph - N/A   Scattered Clouds
6:35 AM 60.8 °F 48.2 °F 63% 30.18 in 10.0 mi SSW 6.9 mph - N/A   Overcast
7:58 AM 64.4 °F 32.0 °F 30% 30.18 in 10.0 mi SSW 11.5 mph - N/A   Clear
8:58 AM 69.8 °F 51.8 °F 53% 30.19 in 10.0 mi South 8.1 mph - N/A   Clear
9:53 AM 71.6 °F 48.2 °F 43% 30.19 in 10.0 mi SSW 12.7 mph 16.1 mph N/A   Clear
11:00 AM 75.2 °F 44.6 °F 34% 30.20 in 10.0 mi Calm Calm - N/A   Scattered Clouds
12:00 PM 77.0 °F 44.6 °F 32% 30.20 in 10.0 mi Calm Calm - N/A   Clear
12:56 PM 78.8 °F 42.8 °F 28% 30.19 in 10.0 mi SW 12.7 mph - N/A   Scattered Clouds
1:55 PM 78.8 °F 42.8 °F 28% 30.19 in 10.0 mi SSW 15.0 mph 23.0 mph N/A   Partly Cloudy
3:14 PM 73.4 °F 44.6 °F 36% 30.20 in 10.0 mi SW 9.2 mph - N/A   Clear
3:51 PM 73.4 °F 44.6 °F 36% 30.20 in 10.0 mi South 10.4 mph - N/A   Mostly Cloudy
4:30 PM 69.8 °F 48.2 °F 46% - 9.0 mi South 20.7 mph 29.9 mph N/A Thunderstorm Mostly Cloudy
4:40 PM 64.4 °F 51.8 °F 64% 30.26 in 10.0 mi SSW 23.0 mph 34.5 mph N/A Thunderstorm Thunderstorm
4:51 PM 57.2 °F 51.8 °F 82% 30.32 in 5.0 mi SSW 29.9 mph 40.3 mph N/A Rain , Thunderstorm Light Thunderstorms and Rain
5:51 PM 64.4 °F 48.2 °F 56% 30.22 in 10.0 mi SW 11.5 mph 19.6 mph N/A   Mostly Cloudy
6:52 PM 64.4 °F 51.8 °F 64% 30.24 in 10.0 mi Calm Calm - N/A   Clear
7:51 PM 64.4 °F 50.0 °F 59% 30.25 in 10.0 mi Calm Calm - N/A   Clear
9:15 PM 60.8 °F 51.8 °F 72% 30.30 in 10.0 mi Calm Calm - N/A   Scattered Clouds
9:35 PM 62.6 °F 46.4 °F 55% 30.29 in 10.0 mi SW 16.1 mph 26.5 mph N/A   Scattered Clouds
9:55 PM 62.6 °F 44.6 °F 52% 30.32 in 10.0 mi SSW 8.1 mph - N/A   Partly Cloudy
10:15 PM 60.8 °F 46.4 °F 59% 30.30 in 10.0 mi SE 5.8 mph - N/A   Clear
10:35 PM 59.0 °F 46.4 °F 63% 30.31 in 10.0 mi Calm Calm - N/A   Clear
10:55 PM 59.0 °F 46.4 °F 63% 30.31 in 10.0 mi NW 3.5 mph - N/A   Clear
11:15 PM 53.6 °F 48.2 °F 82% 30.31 in 10.0 mi Calm Calm - N/A   Partly Cloudy
11:35 PM 55.4 °F 46.4 °F 72% 30.32 in 10.0 mi South 4.6 mph - N/A   Clear
11:55 PM 53.6 °F 46.4 °F 77% 30.32 in 10.0 mi SW 6.9 mph - N/A   Clear